Other Public Products
Issued by NWS Charleston, SC

Current Version | Previous Version | Graphics & Text | Print | Product List | Glossary On
Versions: 1 2 3 4 5 6 7 8 9 10 11 12 13 14 15 16 17 18 19 20 21 22 23 24 25 26 27 28 29 30 31 32 33 34 35 36 37 38 39 40 41 42 43 44 45 46 47 48 49 50
543 FPUS82 KCHS 250712 OPUCHS TEST...KCHS/KSAV Gateway Observations...TEST National Weather Service Charleston SC 200 AM EST SUN FEB 25 2018 NOTE: "fair" indicates few or no clouds below 12,000 feet with no significant weather and/or obstructions to visibility. SCZ050-WAZ558-NCZ071-TXZ119-213-PAZ071-DCZ001-FLZ074-172-MI076- NYZ176-178-MAZ016-IL014-TNZ027-NJZ106-GAZ044-MD014-250800- ...Gateway Observations for Charleston International... CITY SKY/WX TMP DP RH WIND PRES REMARKS Chas Airport FAIR 66 64 93 SW8 30.14S Seattle CLOUDY 41 33 73 S18G26 30.09F Charlotte FAIR 66 60 81 S13 30.05F Dallas DFW PTCLDY 48 43 82 N5 30.01R Dallas Love CLOUDY 47 44 90 CALM 30.03R Philladelphia LGT RAIN 46 44 93 E8 30.13F Wash National LGT RAIN 49 47 93 E6 30.07F Baltimore LGT RAIN 46 46 100 E9 30.07F FOG Miami MOCLDY 75 69 81 E9 30.15F Detroit CLOUDY 39 38 96 E9 29.61F FOG WCI 33 Newark CLOUDY 44 38 79 NE9 30.17F Laguardia CLOUDY 43 38 82 NE10 30.18F J F K LGT RAIN 43 39 86 NE12 30.19F Boston Logan MOCLDY 40 33 76 NE15 30.31R WCI 32 Ft. Lauderdale FAIR 74 70 87 SE12 30.15S Chicago O`Hare CLOUDY 46 42 86 W24G35 29.49R Chicago Midway LGT RAIN 48 45 89 W18G26 29.50R Houston Bush CLOUDY 73 71 93 S5 29.94F Houston Hobby CLOUDY 72 72 100 S3 29.95F Nashville RAIN 56 53 90 SW10 29.91R FOG Atlanta FAIR 68 61 78 SW12G22 30.06F $$ GAZ044-118-TXZ119-213-NCZ071-DCZ001-MDZ014-506-PAZ021-071-NJZ106- NYZ176-178-MAZ106-OHZ011-021-055-MIZ076-KYZ091-ILZ014-INZ047- MNZ060-ONZ431-250800- ...Gateway Observations for Savannah International... CITY SKY/WX TMP DP RH WIND PRES REMARKS Savannah Arpt FAIR 66 64 93 S6 30.14S Atlanta FAIR 68 61 78 SW12G22 30.06F Charlotte FAIR 66 60 81 S13 30.05F Dallas DFW PTCLDY 48 43 82 N5 30.01R Houston Bush CLOUDY 73 71 93 S5 29.94F Wash National LGT RAIN 49 47 93 E6 30.07F Wash Dulles CLOUDY 47 47 100 E3 30.06F FOG Baltimore LGT RAIN 46 46 100 E9 30.07F FOG Philadelphia LGT RAIN 46 44 93 E8 30.13F Newark CLOUDY 44 38 79 NE9 30.17F Laguardia CLOUDY 43 38 82 NE10 30.18F J F K LGT RAIN 43 39 86 NE12 30.19F Boston MOCLDY 40 33 76 NE15 30.31R WCI 32 Pittsburg LGT RAIN 50 48 93 SE12 29.82F FOG Akron LGT RAIN 49 46 90 SE15 29.73F FOG Cleveland LGT RAIN 50 48 93 SE12 29.72F Cincinnati LGT RAIN 57 56 96 S16 29.72F Columbus LGT RAIN 56 56 100 SW18 29.71R Detroit CLOUDY 39 38 96 E9 29.61F FOG WCI 33 Chicago O`Hare CLOUDY 46 42 86 W24G35 29.49R Minneapolis CLOUDY 21 19 92 W15G21 29.50R WCI 8 Indianapolis CLOUDY 57 56 96 SW20 29.64R Toronto Canada LGT RAIN 34 28 80 E18G31 29.91F WCI 23 $$

USA.gov is the U.S. government's official web portal to all federal, state and local government web resources and services.